[[{"header":{"parameterUnit":"m.s-1","parameterCategory":1,"la1":30.2992,"la2":30.254,"lo1":-89.0895,"lo2":-89.0443,"dy":0.0025,"dx":0.0025,"nx":19,"ny":19,"refTime":"2026-04-02T03:00:00:Z","depth":0,"parameterNumber":2,"parameterNumberName":"U-component_of_WINDS"},"data":[0,0,0,-4.7749,-4.7753,-4.7894,-4.7894,-4.8082,-4.8084,0,0,0,0,0,0,0,0,0,0,0,-4.7713,-4.7715,-4.7749,-4.7753,-4.7894,-4.7894,-4.8082,-4.8084,0,0,0,0,0,0,0,0,0,0,0,-4.7713,-4.7714,-4.7716,-4.7753,-4.7894,-4.7894,-4.8082,-4.7972,0,0,0,0,0,0,0,0,0,0,-4.7834,-4.7806,-4.7714,-4.7716,-4.7754,-4.7894,-4.7894,-4.7967,-4.7979,-4.8022,0,-4.8063,0,-4.8077,-4.8097,-4.8098,0,0,0,-4.7748,-4.7796,-4.7829,-4.7717,-4.7756,-4.7893,-4.7829,-4.7973,-4.7987,-4.8038,-4.8065,-4.8072,-4.808,-4.8098,-4.8099,-4.8365,-4.8367,0,0,-4.774,-4.7741,-4.782,-4.7838,-4.7818,-4.7824,-4.7833,-4.7982,-4.8011,-4.8066,-4.8076,-4.8083,-4.81,-4.8101,-4.8364,-4.8366,0,0,0,-4.7721,-4.7736,-4.7765,-4.7831,-4.7856,-4.7829,-4.7839,-4.8004,-4.8014,-4.8078,-4.8085,-4.8101,-4.8103,-4.8362,-4.8365,-4.8436,0,0,0,-4.7716,-4.7725,-4.7762,-4.7764,-4.7853,-4.7932,-4.7858,-4.8003,-4.802,-4.8084,-4.8101,-4.8105,-4.8361,-4.8364,-4.8431,-4.8469,0,0,0,-4.7702,-4.7723,-4.7746,-4.7764,-4.7825,-4.793,-4.7948,-4.8007,-4.8025,-4.8098,-4.8106,-4.836,-4.8363,-4.8426,-4.8461,-4.8538,0,0,0,-4.7687,-4.7808,-4.7747,-4.7884,-4.7824,-4.7974,-4.7947,-4.8058,-4.813,-4.8102,-4.8361,-4.8364,-4.8425,-4.8457,-4.8533,-4.8601,-4.8631,0,0,-4.7839,-4.7826,-4.7907,-4.7857,-4.8018,-4.7952,-4.8124,-4.8189,-4.8195,-4.8308,-4.8314,-4.8433,-4.8461,-4.8537,-4.8799,-4.8822,0,0,0,-4.7955,-4.8013,-4.8056,-4.8125,-4.8178,-4.8226,-4.8265,-4.8289,-4.8385,-4.8254,-4.8483,-4.8499,-4.8544,-4.8576,-4.8596,-4.8633,-4.838,-4.838,-4.838,-4.817,-4.8173,-4.8306,-4.8326,-4.8393,-4.8432,-4.8486,-4.8525,-4.8507,-4.8562,-4.8594,-4.8753,-4.8791,-4.8806,-4.8845,-4.8633,-4.8633,-4.8633,-4.8633,-4.8392,-4.8473,-4.8448,-4.8568,-4.857,-4.8671,-4.8714,-4.8698,-4.8791,-4.8728,-4.8768,-4.8696,-4.8831,-4.8865,-4.8639,-4.8638,-4.8637,-4.8637,-4.8636,-4.853,-4.857,-4.8598,-4.8698,-4.8775,-4.8792,-4.8882,-4.8881,-4.888,-4.892,-4.8953,-4.8952,-4.8948,-4.8936,-4.8937,-4.8937,-4.8938,-4.8938,-4.8939,-4.8662,-4.8692,-4.8769,-4.8837,-4.8881,-4.8939,-4.8981,-4.9024,-4.9071,-4.9063,-4.9063,-4.9038,-4.8845,-4.8795,-4.8947,-4.8946,-4.8944,-4.8944,-4.8943,-4.8881,-4.8831,-4.895,-4.8995,-4.9074,-4.915,-4.9149,-4.9237,-4.9273,-4.9317,-4.9286,-4.9144,-4.9129,-4.9113,-4.9072,-4.9286,-4.9286,-4.9286,-4.9286,-4.8996,-4.8989,-4.911,-4.9181,-4.9251,-4.9262,-4.9395,-4.943,-4.9457,-4.9479,-4.9449,-4.9394,-4.9379,-4.9373,-4.9352,-4.9313,-4.9584,-4.9584,-4.9584,-4.9129,-4.913,-4.9243,-4.9271,-4.9333,-4.9386,-4.9511,-4.9593,-4.9614,-4.9596,-4.9496,-4.9483,-4.9396,-4.9367,-4.9343,-4.931,-4.9238,0,0]},{"header":{"parameterUnit":"m.s-1","parameterCategory":1,"la1":30.2992,"la2":30.254,"lo1":-89.0895,"lo2":-89.0443,"dy":0.0025,"dx":0.0025,"nx":19,"ny":19,"refTime":"2026-04-02T03:00:00:Z","depth":0,"parameterNumber":3,"parameterNumberName":"V-component_of_WINDS"},"data":[0,0,0,2.402,2.4022,2.4106,2.4107,2.4215,2.4216,0,0,0,0,0,0,0,0,0,0,0,2.3997,2.3997,2.402,2.4022,2.4106,2.4107,2.4215,2.4216,0,0,0,0,0,0,0,0,0,0,0,2.3996,2.3997,2.3998,2.4023,2.4106,2.4107,2.4214,2.4151,0,0,0,0,0,0,0,0,0,0,2.4069,2.4048,2.3997,2.3998,2.4023,2.4106,2.4107,2.4147,2.4155,2.4177,0,2.4199,0,2.4209,2.4223,2.4224,0,0,0,2.4021,2.4042,2.4064,2.3998,2.4024,2.4106,2.4068,2.4151,2.4159,2.4187,2.42,2.4204,2.4211,2.4224,2.4224,2.4365,2.4366,0,0,2.4016,2.4012,2.4059,2.4069,2.4057,2.4065,2.4071,2.4156,2.417,2.4201,2.4207,2.4213,2.4225,2.4225,2.4364,2.4365,0,0,0,2.4004,2.4009,2.4029,2.4065,2.408,2.4068,2.4074,2.4166,2.4173,2.4208,2.4214,2.4225,2.4227,2.4364,2.4365,2.4397,0,0,0,2.4001,2.4002,2.4027,2.4025,2.4079,2.4124,2.4082,2.4167,2.4177,2.4214,2.4225,2.4228,2.4363,2.4364,2.4395,2.4413,0,0,0,2.3991,2.4,2.4013,2.4024,2.406,2.4123,2.4135,2.4169,2.4181,2.4224,2.4228,2.4362,2.4364,2.4392,2.4409,2.445,0,0,0,2.3978,2.4039,2.4013,2.4084,2.406,2.4143,2.4134,2.4196,2.4237,2.4226,2.4363,2.4365,2.4392,2.4407,2.4447,2.4484,2.4498,0,0,2.4052,2.4047,2.409,2.4069,2.4157,2.413,2.4222,2.4262,2.4269,2.4333,2.4336,2.4395,2.4409,2.4449,2.4582,2.4593,0,0,0,2.4112,2.4142,2.4166,2.4205,2.4239,2.427,2.4297,2.4312,2.4367,2.4301,2.4421,2.4429,2.4453,2.4471,2.4481,2.4502,2.4372,2.4372,2.4372,2.4209,2.4218,2.4288,2.4307,2.4346,2.4375,2.4407,2.4432,2.4427,2.4456,2.4474,2.4554,2.4574,2.4582,2.4604,2.4494,2.4494,2.4494,2.4494,2.4319,2.4364,2.4359,2.4426,2.4434,2.449,2.4521,2.4516,2.457,2.4539,2.4561,2.4528,2.4594,2.4614,2.4497,2.4496,2.4496,2.4496,2.4495,2.4385,2.4408,2.4427,2.4487,2.4532,2.4549,2.4602,2.4607,2.4612,2.4633,2.4654,2.4654,2.4655,2.4643,2.4643,2.4644,2.4644,2.4644,2.4644,2.4445,2.4466,2.451,2.4553,2.4581,2.4618,2.4649,2.4676,2.4707,2.4707,2.4707,2.47,2.4599,2.4574,2.4648,2.4648,2.4647,2.4647,2.4646,2.4554,2.4531,2.4599,2.4627,2.468,2.4726,2.4732,2.4788,2.481,2.4837,2.4826,2.475,2.4745,2.4737,2.4717,2.4823,2.4823,2.4823,2.4823,2.4609,2.4608,2.4681,2.4726,2.477,2.4784,2.4862,2.4888,2.4911,2.4926,2.4911,2.4884,2.4876,2.4876,2.4865,2.4845,2.4983,2.4983,2.4983,2.4678,2.4682,2.4747,2.4771,2.4813,2.4849,2.4923,2.4975,2.4995,2.499,2.4938,2.4931,2.4887,2.4873,2.4865,2.4848,2.4812,0,0]}]]